| time (UTC) | temp F | wind direction | speed MPH | gust MPH | rain 1hr in | rain 24hr in | rain mn in | humidity % | barometer mb |
| 20260503220302 | 82 | 145 | 8.0 | 14.0 | 0.00 | 0.03 | 0.00 | 24 | 1009.5 |
| 20260503215801 | 82 | 167 | 9.0 | 17.0 | 0.00 | 0.03 | 0.00 | 26 | 1009.5 |
| 20260503215301 | 81 | 145 | 9.0 | 17.0 | 0.00 | 0.03 | 0.00 | 25 | 1009.5 |
| 20260503213802 | 81 | 145 | 9.0 | 14.0 | 0.00 | 0.03 | 0.00 | 26 | 1009.4 |
| 20260503212801 | 81 | 10 | 10.0 | 14.0 | 0.00 | 0.03 | 0.00 | 27 | 1009.7 |
| 20260503212301 | 80 | 145 | 9.0 | 17.0 | 0.00 | 0.03 | 0.00 | 26 | 1009.7 |
| 20260503211802 | 81 | 145 | 9.0 | 14.0 | 0.00 | 0.03 | 0.00 | 26 | 1009.7 |
| 20260503211302 | 81 | 155 | 10.0 | 13.0 | 0.00 | 0.03 | 0.00 | 27 | 1009.7 |
| 20260503210801 | 80 | 190 | 10.0 | 17.0 | 0.00 | 0.03 | 0.00 | 27 | 1009.9 |
| 20260503210301 | 80 | 145 | 9.0 | 21.0 | 0.00 | 0.03 | 0.00 | 27 | 1009.9 |
| 20260503205802 | 80 | 145 | 8.0 | 21.0 | 0.00 | 0.03 | 0.00 | 27 | 1009.9 |
| 20260503205303 | 80 | 145 | 8.0 | 14.0 | 0.00 | 0.03 | 0.00 | 27 | 1009.9 |
| 20260503204801 | 80 | 145 | 9.0 | 20.0 | 0.00 | 0.03 | 0.00 | 28 | 1010.5 |
| 20260503204302 | 79 | 145 | 10.0 | 21.0 | 0.00 | 0.03 | 0.00 | 28 | 1010.5 |
| 20260503203802 | 79 | 145 | 8.0 | 22.0 | 0.00 | 0.03 | 0.00 | 28 | 1010.5 |
| 20260503203301 | 80 | 134 | 7.0 | 12.0 | 0.00 | 0.03 | 0.00 | 29 | 1010.5 |
| 20260503202301 | 79 | 145 | 11.0 | 18.0 | 0.00 | 0.03 | 0.00 | 28 | 1011.0 |
| 20260503200802 | 78 | 167 | 9.0 | 18.0 | 0.00 | 0.03 | 0.00 | 28 | 1011.3 |
| 20260503200301 | 79 | 145 | 9.0 | 18.0 | 0.00 | 0.03 | 0.00 | 29 | 1011.3 |
| 20260503195301 | 77 | 167 | 9.0 | 17.0 | 0.00 | 0.03 | 0.00 | 27 | 1011.3 |
| 20260503194802 | 77 | 280 | 9.0 | 13.0 | 0.00 | 0.03 | 0.00 | 27 | 1012.0 |
| 20260503194302 | 77 | 219 | 10.0 | 12.0 | 0.00 | 0.03 | 0.00 | 28 | 1012.0 |
| 20260503193802 | 76 | 145 | 10.0 | 15.0 | 0.00 | 0.03 | 0.00 | 29 | 1012.0 |
| 20260503193302 | 76 | 168 | 10.0 | 20.0 | 0.00 | 0.03 | 0.00 | 28 | 1012.0 |
| 20260503192801 | 76 | 190 | 9.0 | 14.0 | 0.00 | 0.03 | 0.00 | 29 | 1012.6 |
| 20260503192305 | 70 | 145 | 7.0 | 3.0 | 0.00 | 0.03 | 0.00 | 39 | 1015.4 |
| 20260503175302 | 68 | 167 | 8.0 | 14.0 | 0.00 | 0.03 | 0.00 | 38 | 1015.4 |
| 20260503174801 | 68 | 167 | 9.0 | 14.0 | 0.00 | 0.03 | 0.00 | 38 | 1016.1 |
| 20260503174301 | 67 | 205 | 10.0 | 20.0 | 0.00 | 0.03 | 0.00 | 38 | 1016.1 |
| 20260503173801 | 67 | 145 | 11.0 | 20.0 | 0.00 | 0.03 | 0.00 | 39 | 1016.1 |
| 20260503173302 | 66 | 145 | 10.0 | 15.0 | 0.00 | 0.03 | 0.00 | 39 | 1016.1 |
| 20260503172802 | 66 | 123 | 8.0 | 31.0 | 0.00 | 0.03 | 0.00 | 39 | 1016.4 |
| 20260503171802 | 65 | 145 | 9.0 | 17.0 | 0.00 | 0.03 | 0.00 | 40 | 1016.3 |
| 20260503171303 | 66 | 239 | 8.0 | 18.0 | 0.00 | 0.03 | 0.00 | 41 | 1016.3 |
| 20260503170803 | 65 | 167 | 9.0 | 18.0 | 0.00 | 0.03 | 0.00 | 41 | 1016.1 |
| 20260503170303 | 65 | 140 | 9.0 | 17.0 | 0.00 | 0.03 | 0.00 | 41 | 1016.1 |
| 20260503150802 | 58 | 145 | 6.0 | 13.0 | 0.00 | 0.03 | 0.00 | 55 | 1018.1 |
| 20260503150302 | 58 | 185 | 6.0 | 8.0 | 0.00 | 0.03 | 0.00 | 56 | 1018.1 |
| 20260503131302 | 51 | 135 | 6.0 | 10.0 | 0.00 | 0.03 | 0.00 | 66 | 1019.4 |
| 20260503130802 | 51 | 145 | 3.0 | 10.0 | 0.00 | 0.03 | 0.00 | 67 | 1019.5 |
| 20260503130302 | 50 | 154 | 4.0 | 8.0 | 0.00 | 0.03 | 0.00 | 68 | 1019.5 |
| 20260503080802 | 47 | 213 | 0.0 | 0.0 | 0.00 | 0.03 | 0.00 | 76 | 1019.5 |
| 20260503080302 | 47 | 257 | 0.0 | 0.0 | 0.00 | 0.03 | 0.00 | 76 | 1019.5 |
| 20260503072803 | 47 | 190 | 0.0 | 0.0 | 0.00 | 0.03 | 0.00 | 75 | 1020.0 |
| 20260503071802 | 47 | 347 | 0.0 | 0.0 | 0.00 | 0.03 | 0.00 | 74 | 1020.0 |
| 20260503071302 | 47 | 151 | 0.0 | 0.0 | 0.00 | 0.03 | 0.00 | 73 | 1020.0 |
| 20260503070302 | 47 | 251 | 0.0 | 0.0 | 0.00 | 0.03 | 0.00 | 73 | 1020.0 |
| 20260503060303 | 47 | 145 | 0.0 | 0.0 | 0.00 | 0.03 | 0.00 | 70 | 1020.3 |
| 20260503054802 | 47 | 145 | 0.0 | 0.0 | 0.00 | 0.03 | 0.00 | 69 | 1020.1 |
| 20260503054302 | 47 | 145 | 0.0 | 0.0 | 0.00 | 0.03 | 0.00 | 69 | 1020.1 |
| 20260503053802 | 47 | 145 | 0.0 | 0.0 | 0.00 | 0.03 | 0.00 | 68 | 1020.1 |
| 20260503053303 | 47 | 145 | 0.0 | 0.0 | 0.00 | 0.03 | 0.00 | 68 | 1020.1 |
| 20260503052803 | 47 | 145 | 0.0 | 0.0 | 0.00 | 0.03 | 0.00 | 68 | 1020.3 |
| 20260503051803 | 47 | 145 | 0.0 | 0.0 | 0.00 | 0.03 | 0.00 | 67 | 1020.3 |
| 20260503051302 | 48 | 145 | 0.0 | 0.0 | 0.00 | 0.03 | 0.00 | 67 | 1020.3 |
| 20260503050819 | 48 | 145 | 0.0 | 0.0 | 0.00 | 0.03 | 0.00 | 66 | 1020.2 |
| 20260503050303 | 48 | 145 | 0.0 | 0.0 | 0.00 | 0.03 | 0.00 | 66 | 1020.2 |
| 20260503045802 | 48 | 145 | 0.0 | 0.0 | 0.00 | 0.03 | 0.03 | 65 | 1020.2 |
| 20260503045304 | 48 | 145 | 0.0 | 0.0 | 0.00 | 0.03 | 0.03 | 65 | 1020.2 |
| 20260503044802 | 49 | 145 | 0.0 | 0.0 | 0.00 | 0.03 | 0.03 | 65 | 1020.3 |
| 20260503043802 | 49 | 167 | 0.0 | 0.0 | 0.00 | 0.03 | 0.03 | 64 | 1020.3 |
| 20260503042803 | 49 | 167 | 0.0 | 0.0 | 0.00 | 0.03 | 0.03 | 64 | 1019.6 |
| 20260503042304 | 49 | 167 | 0.0 | 0.0 | 0.00 | 0.03 | 0.03 | 64 | 1019.6 |
| 20260503041302 | 49 | 167 | 0.0 | 0.0 | 0.00 | 0.03 | 0.03 | 63 | 1019.6 |
| 20260503040802 | 50 | 167 | 0.0 | 0.0 | 0.00 | 0.03 | 0.03 | 62 | 1019.9 |
| 20260503040302 | 50 | 167 | 0.0 | 0.0 | 0.00 | 0.03 | 0.03 | 62 | 1019.9 |
| 20260503035802 | 50 | 167 | 0.0 | 0.0 | 0.00 | 0.03 | 0.03 | 61 | 1019.9 |
| 20260503034803 | 50 | 167 | 0.0 | 0.0 | 0.00 | 0.03 | 0.03 | 60 | 1019.9 |
| 20260503034302 | 50 | 167 | 0.0 | 0.0 | 0.00 | 0.03 | 0.03 | 60 | 1019.9 |
| 20260503033302 | 51 | 167 | 0.0 | 0.0 | 0.00 | 0.03 | 0.03 | 59 | 1019.9 |
| 20260503032304 | 51 | 173 | 0.0 | 0.0 | 0.00 | 0.03 | 0.03 | 59 | 1020.1 |
| 20260503031802 | 51 | 145 | 0.0 | 0.0 | 0.00 | 0.03 | 0.03 | 57 | 1020.1 |
| 20260503031302 | 51 | 145 | 0.0 | 0.0 | 0.00 | 0.03 | 0.03 | 57 | 1020.1 |
| 20260503030803 | 52 | 145 | 0.0 | 0.0 | 0.00 | 0.03 | 0.03 | 55 | 1019.9 |
| 20260503030302 | 52 | 145 | 0.0 | 0.0 | 0.00 | 0.03 | 0.03 | 55 | 1019.9 |
| 20260503025802 | 52 | 145 | 0.0 | 0.0 | 0.00 | 0.03 | 0.03 | 55 | 1019.9 |
| 20260503025305 | 52 | 145 | 0.0 | 0.0 | 0.00 | 0.03 | 0.03 | 55 | 1019.9 |
| 20260503023803 | 53 | 145 | 0.0 | 0.0 | 0.00 | 0.03 | 0.03 | 53 | 1019.7 |
| 20260503023302 | 53 | 145 | 0.0 | 0.0 | 0.00 | 0.03 | 0.03 | 52 | 1019.7 |
| 20260503022343 | 53 | 145 | 0.0 | 0.0 | 0.00 | 0.03 | 0.03 | 51 | 1019.5 |
| 20260503021802 | 54 | 145 | 0.0 | 0.0 | 0.00 | 0.03 | 0.03 | 50 | 1019.5 |
| 20260503020802 | 54 | 145 | 0.0 | 0.0 | 0.00 | 0.03 | 0.03 | 48 | 1019.5 |
| 20260503020303 | 55 | 145 | 0.0 | 0.0 | 0.00 | 0.03 | 0.03 | 47 | 1019.5 |
| 20260503015305 | 55 | 347 | 0.0 | 0.0 | 0.00 | 0.03 | 0.03 | 44 | 1019.5 |
| 20260503014803 | 56 | 347 | 0.0 | 0.0 | 0.03 | 0.03 | 0.03 | 43 | 1019.3 |
| 20260503014303 | 56 | 347 | 0.0 | 0.0 | 0.03 | 0.03 | 0.03 | 42 | 1019.3 |
| 20260503013802 | 56 | 347 | 0.0 | 0.0 | 0.03 | 0.03 | 0.03 | 41 | 1019.3 |
| 20260503013302 | 56 | 347 | 0.0 | 0.0 | 0.03 | 0.03 | 0.03 | 41 | 1019.3 |
| 20260503012803 | 57 | 347 | 0.0 | 0.0 | 0.03 | 0.03 | 0.03 | 39 | 1018.7 |
| 20260503012305 | 57 | 347 | 0.0 | 0.0 | 0.03 | 0.03 | 0.03 | 39 | 1018.7 |
| 20260503011802 | 58 | 347 | 0.0 | 0.0 | 0.03 | 0.03 | 0.03 | 38 | 1018.7 |
| 20260503011303 | 58 | 347 | 0.0 | 0.0 | 0.03 | 0.03 | 0.03 | 37 | 1018.7 |
| 20260503010803 | 58 | 347 | 0.0 | 0.0 | 0.03 | 0.03 | 0.03 | 37 | 1018.9 |
| 20260503010302 | 59 | 335 | 0.0 | 0.0 | 0.03 | 0.03 | 0.03 | 36 | 1018.9 |
| 20260503005803 | 59 | 325 | 0.0 | 0.0 | 0.03 | 0.03 | 0.03 | 36 | 1018.9 |
| 20260503005304 | 59 | 280 | 0.0 | 0.0 | 0.03 | 0.03 | 0.03 | 36 | 1018.9 |
| 20260503004803 | 60 | 303 | 0.0 | 0.0 | 0.00 | 0.00 | 0.00 | 36 | 1018.9 |
| 20260503004303 | 61 | 28 | 0.0 | 0.0 | 0.00 | 0.00 | 0.00 | 37 | 1018.9 |
| 20260503003803 | 60 | 303 | 0.0 | 0.0 | 0.00 | 0.00 | 0.00 | 37 | 1018.9 |
| 20260503003303 | 60 | 333 | 1.0 | 0.0 | 0.00 | 0.00 | 0.00 | 36 | 1018.9 |
| 20260503002305 | 60 | 16 | 1.0 | 2.0 | 0.00 | 0.00 | 0.00 | 36 | 1018.8 |
| 20260503001802 | 60 | 213 | 1.0 | 5.0 | 0.00 | 0.00 | 0.00 | 36 | 1018.8 |
| 20260503001302 | 60 | 8 | 2.0 | 5.0 | 0.00 | 0.00 | 0.00 | 36 | 1018.8 |
| 20260503000802 | 61 | 347 | 2.0 | 3.0 | 0.00 | 0.00 | 0.00 | 36 | 1018.8 |
| 20260503000303 | 61 | 207 | 2.0 | 3.0 | 0.00 | 0.00 | 0.00 | 36 | 1018.8 |
| 20260502235803 | 61 | 347 | 2.0 | 7.0 | 0.00 | 0.00 | 0.00 | 36 | 1018.8 |
| 20260502235304 | 61 | 357 | 3.0 | 7.0 | 0.00 | 0.00 | 0.00 | 35 | 1018.8 |
| 20260502234803 | 62 | 347 | 3.0 | 5.0 | 0.00 | 0.00 | 0.00 | 35 | 1019.0 |
| 20260502234302 | 62 | 163 | 3.0 | 6.0 | 0.00 | 0.00 | 0.00 | 35 | 1019.0 |
| 20260502233802 | 62 | 235 | 3.0 | 14.0 | 0.00 | 0.00 | 0.00 | 34 | 1019.0 |
| 20260502233303 | 62 | 6 | 2.0 | 5.0 | 0.00 | 0.00 | 0.00 | 34 | 1019.0 |
| 20260502231803 | 64 | 303 | 3.0 | 2.0 | 0.00 | 0.00 | 0.00 | 32 | 1019.3 |
| 20260502231303 | 66 | 280 | 2.0 | 6.0 | 0.00 | 0.00 | 0.00 | 31 | 1019.3 |
| 20260502230303 | 69 | 278 | 2.0 | 6.0 | 0.00 | 0.00 | 0.00 | 32 | 1019.1 |
| 20260502225802 | 68 | 347 | 2.0 | 6.0 | 0.00 | 0.00 | 0.00 | 31 | 1019.1 |
| 20260502225304 | 68 | 167 | 2.0 | 3.0 | 0.00 | 0.00 | 0.00 | 32 | 1019.1 |
| 20260502224802 | 69 | 190 | 2.0 | 6.0 | 0.00 | 0.00 | 0.00 | 32 | 1019.2 |
| 20260502224303 | 68 | 146 | 2.0 | 5.0 | 0.00 | 0.00 | 0.00 | 33 | 1019.2 |
| 20260502223802 | 67 | 213 | 1.0 | 7.0 | 0.00 | 0.00 | 0.00 | 32 | 1019.2 |
| 20260502222804 | 67 | 167 | 1.0 | 5.0 | 0.00 | 0.00 | 0.00 | 34 | 1019.8 |
| 20260502222305 | 67 | 279 | 2.0 | 5.0 | 0.00 | 0.00 | 0.00 | 34 | 1019.8 |
| 20260502221805 | 66 | 303 | 3.0 | 5.0 | 0.00 | 0.00 | 0.00 | 35 | 1019.8 |
| 20260502221303 | 63 | 285 | 2.0 | 5.0 | 0.00 | 0.00 | 0.00 | 36 | 1019.8 |